Overview Statistics Trail Chart Weather Telemetry Raw packets
 

This is the latest recevied weather packets stored in our database for station/object G4KVI. If no packets are shown the sender has not sent any weather packets the latest 10 day(s).

<< 83 84 85 86 87 88 89 >>
Time Temp. Humidity Pressure Rain* Wind** Luminosity Snow
1787986506 16.11° C 94% 1006.2 hPa 2.54 mm - 41 W/m² -
1787986206 16.11° C 94% 1006.2 hPa 2.79 mm - 13 W/m² -
1787985905 16.11° C 94% 1006.4 hPa 2.54 mm - 29 W/m² -
1787985606 16.11° C 94% 1006.3 hPa 2.29 mm - 19 W/m² -
1787985306 16.11° C 93% 1006.4 hPa 2.03 mm - 9 W/m² -
1787985006 16.11° C 93% 1006.4 hPa 2.03 mm - 11 W/m² -
1787984705 16.11° C 93% 1006.4 hPa 1.78 mm - 14 W/m² -
1787984405 16.11° C 93% 1006.5 hPa 1.52 mm - 12 W/m² -
1787984106 16.11° C 93% 1006.7 hPa 1.27 mm - 10 W/m² -
1787983806 16.11° C 93% 1006.6 hPa 1.02 mm - 8 W/m² -
1787983505 16.11° C 93% 1006.8 hPa 1.27 mm - 6 W/m² -
1787983206 16.11° C 92% 1006.7 hPa 1.02 mm - 6 W/m² -
1787982905 16.11° C 92% 1006.8 hPa 0.76 mm - 4 W/m² -
1787982606 16.11° C 92% 1007.2 hPa 0.51 mm - 3 W/m² -
1787982305 16.11° C 92% 1007.1 hPa 0.51 mm - 2 W/m² -
1787982005 16.11° C 92% 1007.3 hPa 0.51 mm - 1 W/m² -
1787981706 16.11° C 92% 1007.4 hPa 0.51 mm - 1 W/m² -
1787981405 16.11° C 92% 1007.4 hPa 0.25 mm - 1 W/m² -
1787981106 16.11° C 92% 1007.4 hPa 0.25 mm - 1 W/m² -
1787980805 16.11° C 92% 1007.5 hPa 0.25 mm - 0 W/m² -
1787980505 16.11° C 92% 1007.5 hPa 0.25 mm - 0 W/m² -
1787980205 16.11° C 92% 1007.6 hPa 0.25 mm - 0 W/m² -
1787979905 16.11° C 92% 1007.5 hPa 0 mm - 0 W/m² -
1787979605 16.11° C 92% 1007.7 hPa 0 mm - 0 W/m² -
1787979305 16.11° C 92% 1007.7 hPa 0 mm - 0 W/m² -

* Rain latest hour (hover to see other rain measurements)
** Current wind speed in m/s (hover to see current wind gust speed)